Weather History for Quakertown, PA

Change the Weather History Date:

Wednesday, February 19, 2014

  Actual Average (KABE) Record (KABE)
Temperature  
Mean Temperature 30 °F 32 °F  
Max Temperature 44 °F 41 °F 63 °F (1997)
Min Temperature 15 °F 22 °F 0 °F (1936)
Degree Days  
Heating Degree Days 36 33  
Month to date heating degree days 669  
Since 1 July heating degree days 4019  
Cooling Degree Days 0 0  
Month to date cooling degree days 0  
Year to date cooling degree days 0  
Moisture  
Dew Point 28 °F    
Average Humidity 85    
Maximum Humidity 100    
Minimum Humidity 61    
Precipitation  
Precipitation 0.21 in 0.10 in 1.14 in (1972)
Month to date precipitation 1.83  
Year to date precipitation 4.86  
Snow  
Snow 0.00 in 0.40 in 12.10 in (1979)
Month to date snowfall 7.9  
Since 1 July snowfall 23.8  
Snow Depth -    
Sea Level Pressure  
Sea Level Pressure 29.89 in    
Wind  
Wind Speed 2 mph (WSW)    
Max Wind Speed 14 mph    
Max Gust Speed 22 mph    
Visibility 6 miles    
Events      
T = Trace of Precipitation, MM = Missing Value Source: NWS Daily Summary

Daily Weather History Graph

Daily Weather History Graph

Search for Another Location

Airport:

Trip Planner

Search our weather history database for the weather conditions in past years. The results will help you decide how hot, cold, wet, or windy it might be!

Date:

Astronomy

Feb. 19, 2014 Rise Set
Actual Time 6:49 AM EST 5:41 PM EST
Civil Twilight 6:21 AM EST 6:09 PM EST
Nautical Twilight 5:50 AM EST 6:41 PM EST
Astronomical Twilight 5:18 AM EST 7:12 PM EST
Moon 10:33 PM EST (2/19) 8:53 AM EST (2/19)
Length of Visible Light 11h 47m
Length of Day
10h 51m
Waning Gibbous, 80% of the Moon is Illuminated
Feb 19
Waning Gibbous
Feb 22
Last Quarter
Mar 1
New
Mar 8
First Quarter
Mar 16
Full

Hourly Weather History & Observations

Time (EST) Temp. Windchill Dew Point Humidity Pressure Visibility Wind Dir Wind Speed Gust Speed Precip Events Conditions
12:15 AM 17.6 °F - 15.8 °F 93% 30.08 in 5.0 mi Calm Calm - N/A   Clear
12:35 AM 17.6 °F - 15.8 °F 93% 30.08 in 7.0 mi Calm Calm - N/A   Clear
12:55 AM 17.6 °F - 15.8 °F 93% 30.07 in 6.0 mi Calm Calm - N/A   Clear
1:15 AM 17.6 °F - 14.0 °F 86% 30.06 in 7.0 mi Calm Calm - N/A   Clear
1:35 AM 17.6 °F - 15.8 °F 93% 30.08 in 6.0 mi Calm Calm - N/A   Clear
1:55 AM 17.6 °F 12.3 °F 15.8 °F 93% 30.09 in 7.0 mi SSW 3.5 mph - N/A   Clear
2:15 AM 17.6 °F - 14.0 °F 86% 30.08 in 5.0 mi Calm Calm - N/A   Clear
2:35 AM 17.6 °F - 14.0 °F 86% 30.07 in 5.0 mi Calm Calm - N/A   Clear
2:55 AM 17.6 °F - 15.8 °F 93% 30.05 in 5.0 mi Calm Calm - N/A   Clear
3:15 AM 17.6 °F - 15.8 °F 93% 30.04 in 5.0 mi Calm Calm - N/A   Clear
3:35 AM 17.6 °F - 15.8 °F 93% 30.03 in 5.0 mi Calm Calm - N/A   Clear
3:55 AM 17.6 °F - 15.8 °F 93% 30.01 in 5.0 mi Calm Calm - N/A   Clear
4:15 AM 17.6 °F - 15.8 °F 93% 30.00 in 6.0 mi Calm Calm - N/A   Clear
4:35 AM 15.8 °F - 14.0 °F 93% 29.98 in 5.0 mi Calm Calm - N/A   Clear
4:55 AM 17.6 °F - 17.6 °F 100% 29.97 in 5.0 mi Calm Calm - N/A   Clear
5:15 AM 19.4 °F 14.3 °F 17.6 °F 93% 29.97 in 6.0 mi NNE 3.5 mph - N/A   Clear
5:35 AM 17.6 °F - 15.8 °F 93% 29.97 in 5.0 mi Calm Calm - N/A   Clear
5:55 AM 15.8 °F - 14.0 °F 93% 29.96 in 5.0 mi Calm Calm - N/A   Clear
6:15 AM 23.0 °F - 23.0 °F 100% 29.94 in 5.0 mi Calm Calm - N/A   Scattered Clouds
6:35 AM 24.8 °F - 23.0 °F 93% 29.93 in 7.0 mi Calm Calm - N/A   Partly Cloudy
6:55 AM 23.0 °F - 21.2 °F 93% 29.92 in 5.0 mi Calm Calm - N/A   Scattered Clouds
7:15 AM 24.8 °F - 23.0 °F 93% 29.90 in 5.0 mi Calm Calm - N/A   Mostly Cloudy
7:35 AM 28.4 °F - 24.8 °F 86% 29.89 in 7.0 mi Calm Calm - N/A   Overcast
7:55 AM 28.4 °F 23.3 °F 24.8 °F 86% 29.87 in 8.0 mi East 4.6 mph - N/A   Mostly Cloudy
8:15 AM 32.0 °F - 26.6 °F 80% 29.88 in 10.0 mi Calm Calm - N/A   Overcast
8:35 AM 32.0 °F 28.7 °F 26.6 °F 80% 29.87 in 9.0 mi North 3.5 mph - N/A   Mostly Cloudy
8:55 AM 32.0 °F 28.7 °F 26.6 °F 80% 29.88 in 9.0 mi NNE 3.5 mph - N/A   Mostly Cloudy
9:15 AM 32.0 °F 27.5 °F 26.6 °F 80% 29.91 in 5.0 mi West 4.6 mph - N/A   Mostly Cloudy
9:35 AM 32.0 °F - 28.4 °F 87% 29.88 in 1.5 mi Calm Calm - 0.03 in   Overcast
9:55 AM 32.0 °F - 30.2 °F 93% 29.86 in 1.5 mi Calm Calm - 0.07 in   Overcast
10:15 AM 32.0 °F - 30.2 °F 93% 29.85 in 1.0 mi Calm Calm - 0.05 in   Overcast
10:35 AM 32.0 °F - 32.0 °F 100% 29.83 in 1.0 mi Calm Calm - 0.09 in   Overcast
10:55 AM 32.0 °F - 32.0 °F 100% 29.83 in 1.0 mi Calm Calm - 0.11 in   Overcast
11:15 AM 32.0 °F - 32.0 °F 100% 29.81 in 0.2 mi Calm Calm - 0.02 in   Overcast
11:35 AM 32.0 °F - 32.0 °F 100% 29.81 in 1.5 mi Calm Calm - 0.03 in   Overcast
11:55 AM 32.0 °F - 32.0 °F 100% 29.80 in 2.0 mi Calm Calm - 0.03 in   Overcast
12:15 PM 33.8 °F - 32.0 °F 93% 29.78 in 2.0 mi Calm Calm - N/A   Overcast
12:35 PM 35.6 °F - 32.0 °F 87% 29.76 in 2.0 mi Calm Calm - N/A   Overcast
12:55 PM 35.6 °F - 32.0 °F 87% 29.74 in 3.0 mi Calm Calm - N/A   Overcast
1:15 PM 37.4 °F - 33.8 °F 87% 29.74 in 2.5 mi Calm Calm - N/A   Overcast
1:35 PM 37.4 °F - 35.6 °F 93% 29.74 in 3.0 mi Calm Calm - N/A   Overcast
1:55 PM 39.2 °F - 35.6 °F 87% 29.72 in 4.0 mi Calm Calm - N/A   Overcast
2:15 PM 39.2 °F - 35.6 °F 87% 29.71 in 5.0 mi Calm Calm - N/A   Mostly Cloudy
2:35 PM 41.0 °F 38.0 °F 35.6 °F 81% 29.71 in 8.0 mi SSW 4.6 mph - N/A   Partly Cloudy
2:55 PM 41.0 °F 39.0 °F 35.6 °F 81% 29.70 in 8.0 mi West 3.5 mph - N/A   Clear
3:15 PM 42.8 °F 41.1 °F 35.6 °F 76% 29.69 in 8.0 mi WSW 3.5 mph - N/A   Clear
3:35 PM 42.8 °F - 35.6 °F 76% 29.70 in 9.0 mi Calm Calm - N/A   Clear
3:55 PM 41.0 °F 37.1 °F 35.6 °F 81% 29.71 in 9.0 mi SW 5.8 mph - N/A   Clear
4:15 PM 41.0 °F 39.0 °F 35.6 °F 81% 29.72 in 8.0 mi WSW 3.5 mph - N/A   Mostly Cloudy
4:35 PM 41.0 °F 39.0 °F 35.6 °F 81% 29.74 in 7.0 mi West 3.5 mph - N/A   Overcast
4:55 PM 39.2 °F - 35.6 °F 87% 29.76 in 5.0 mi Calm Calm - N/A   Overcast
5:15 PM 39.2 °F - 35.6 °F 87% 29.76 in 5.0 mi Calm Calm - N/A   Scattered Clouds
5:35 PM 37.4 °F - 35.6 °F 93% 29.78 in 5.0 mi Calm Calm - N/A   Clear
5:55 PM 37.4 °F - 33.8 °F 87% 29.79 in 5.0 mi Calm Calm - N/A   Clear
6:15 PM 37.4 °F - 33.8 °F 87% 29.80 in 7.0 mi Calm Calm - N/A   Clear
6:35 PM 37.4 °F 34.9 °F 33.8 °F 87% 29.82 in 8.0 mi WSW 3.5 mph - N/A   Clear
6:55 PM 39.2 °F 35.9 °F 35.6 °F 87% 29.83 in 7.0 mi SW 4.6 mph - N/A   Partly Cloudy
7:15 PM 39.2 °F 35.0 °F 35.6 °F 87% 29.84 in 8.0 mi SW 5.8 mph - N/A   Clear
7:35 PM 41.0 °F 36.4 °F 35.6 °F 81% 29.86 in 8.0 mi SW 6.9 mph - N/A   Partly Cloudy
7:55 PM 41.0 °F 36.4 °F 35.6 °F 81% 29.88 in 10.0 mi SW 6.9 mph - N/A   Mostly Cloudy
8:15 PM 42.8 °F 38.0 °F 33.8 °F 70% 29.89 in 10.0 mi SW 8.1 mph - N/A   Partly Cloudy
8:35 PM 44.6 °F 39.7 °F 32.0 °F 61% 29.92 in 10.0 mi WSW 9.2 mph 17.3 mph N/A   Scattered Clouds
8:55 PM 44.6 °F 40.2 °F 32.0 °F 61% 29.93 in 10.0 mi SW 8.1 mph 19.6 mph N/A   Scattered Clouds
9:15 PM 44.6 °F 40.7 °F 32.0 °F 61% 29.95 in 10.0 mi WSW 6.9 mph 18.4 mph N/A   Clear
9:35 PM 44.6 °F 39.7 °F 32.0 °F 61% 29.96 in 10.0 mi WSW 9.2 mph 21.9 mph N/A   Clear
9:55 PM 44.6 °F 40.2 °F 32.0 °F 61% 29.98 in 10.0 mi WSW 8.1 mph 16.1 mph N/A   Clear
10:15 PM 44.6 °F 40.2 °F 32.0 °F 61% 29.99 in 10.0 mi WSW 8.1 mph 18.4 mph N/A   Clear
10:35 PM 42.8 °F 35.8 °F 30.2 °F 61% 30.00 in 10.0 mi West 13.8 mph 19.6 mph N/A   Clear
10:55 PM 41.0 °F 34.3 °F 30.2 °F 65% 30.01 in 10.0 mi West 11.5 mph 17.3 mph N/A   Clear
11:15 PM 41.0 °F 35.8 °F 28.4 °F 61% 30.03 in 10.0 mi WSW 8.1 mph - N/A   Clear
11:35 PM 41.0 °F 35.8 °F 28.4 °F 61% 30.06 in 10.0 mi West 8.1 mph - N/A   Clear
11:55 PM 41.0 °F 38.0 °F 28.4 °F 61% 30.07 in 10.0 mi SW 4.6 mph - N/A   Clear